Time,TemperatureF,DewpointF,PressureIn,WindDirection,WindDirectionDegrees,WindSpeedMPH,WindSpeedGustMPH,Humidity,HourlyPrecipIn,Conditions,Clouds,dailyrainin,SolarRadiationWatts/m^2,SoftwareType,DateUTC
2013-02-15 00:00:00,35.0,30.4,30.07,SW,229,0.0,0.0,83,0.00,,,0.00,0,Wunderground v.1.15,2013-02-15 05:00:00,
2013-02-15 00:05:00,34.9,30.3,30.07,SW,229,0.0,0.0,83,0.00,,,0.00,0,Wunderground v.1.15,2013-02-15 05:05:00,
2013-02-15 00:10:00,34.8,30.5,30.07,SW,229,0.0,0.0,84,0.00,,,0.00,0,Wunderground v.1.15,2013-02-15 05:10:00,
2013-02-15 00:20:00,34.7,30.4,30.07,SW,229,0.0,0.0,84,0.00,,,0.00,0,Wunderground v.1.15,2013-02-15 05:20:00,
2013-02-15 00:25:00,34.6,30.3,30.07,SW,229,0.0,0.0,84,0.00,,,0.00,0,Wunderground v.1.15,2013-02-15 05:25:00,
2013-02-15 00:35:00,34.2,29.9,30.07,SW,229,0.0,1.0,84,0.00,,,0.00,0,Wunderground v.1.15,2013-02-15 05:35:00,
2013-02-15 00:40:00,34.0,29.7,30.08,SW,229,1.0,2.0,84,0.00,,,0.00,0,Wunderground v.1.15,2013-02-15 05:40:00,
2013-02-15 00:45:00,33.9,30.2,30.08,SW,229,1.0,2.0,86,0.00,,,0.00,0,Wunderground v.1.15,2013-02-15 05:45:00,
2013-02-15 00:50:00,33.9,29.9,30.08,SW,229,0.0,2.0,85,0.00,,,0.00,0,Wunderground v.1.15,2013-02-15 05:50:00,
2013-02-15 00:55:00,33.9,29.9,30.08,SW,229,1.0,2.0,85,0.00,,,0.00,0,Wunderground v.1.15,2013-02-15 05:55:00,
2013-02-15 01:00:00,33.9,29.9,30.08,SW,229,1.0,1.0,85,0.00,,,0.00,0,Wunderground v.1.15,2013-02-15 06:00:00,
2013-02-15 01:10:00,33.7,29.7,30.08,SW,229,1.0,1.0,85,0.00,,,0.00,0,Wunderground v.1.15,2013-02-15 06:10:00,
2013-02-15 01:15:00,33.3,29.3,30.08,SW,229,1.0,1.0,85,0.00,,,0.00,0,Wunderground v.1.15,2013-02-15 06:15:00,
2013-02-15 01:20:00,33.0,29.3,30.09,SW,229,0.0,0.0,86,0.00,,,0.00,0,Wunderground v.1.15,2013-02-15 06:20:00,
2013-02-15 01:30:00,32.6,29.2,30.09,SW,229,0.0,0.0,87,0.00,,,0.00,0,Wunderground v.1.15,2013-02-15 06:30:00,
2013-02-15 01:35:00,32.4,29.0,30.09,SW,229,0.0,0.0,87,0.00,,,0.00,0,Wunderground v.1.15,2013-02-15 06:35:00,
2013-02-15 01:45:00,31.9,28.5,30.09,SW,229,0.0,0.0,87,0.00,,,0.00,0,Wunderground v.1.15,2013-02-15 06:45:00,
2013-02-15 01:50:00,31.9,28.8,30.09,SW,229,0.0,0.0,88,0.00,,,0.00,0,Wunderground v.1.15,2013-02-15 06:50:00,
2013-02-15 02:00:00,32.0,29.1,30.09,SW,229,0.0,0.0,89,0.00,,,0.00,0,Wunderground v.1.15,2013-02-15 07:00:00,
2013-02-15 02:05:00,32.1,29.2,30.09,SW,229,0.0,0.0,89,0.00,,,0.00,0,Wunderground v.1.15,2013-02-15 07:05:00,
2013-02-15 02:10:00,32.4,29.8,30.09,SW,229,0.0,0.0,90,0.00,,,0.00,0,Wunderground v.1.15,2013-02-15 07:10:00,
2013-02-15 02:20:00,32.9,30.0,30.09,SW,229,0.0,0.0,89,0.00,,,0.00,0,Wunderground v.1.15,2013-02-15 07:20:00,
2013-02-15 02:25:00,33.0,30.1,30.09,SW,229,1.0,1.0,89,0.00,,,0.00,0,Wunderground v.1.15,2013-02-15 07:25:00,
2013-02-15 02:35:00,33.0,29.8,30.09,SW,229,1.0,2.0,88,0.00,,,0.00,0,Wunderground v.1.15,2013-02-15 07:35:00,
2013-02-15 02:40:00,32.8,29.6,30.09,SW,229,2.0,2.0,88,0.00,,,0.00,0,Wunderground v.1.15,2013-02-15 07:40:00,
2013-02-15 02:50:00,32.8,29.9,30.09,SW,229,1.0,1.0,89,0.00,,,0.00,0,Wunderground v.1.15,2013-02-15 07:50:00,
2013-02-15 02:55:00,33.0,30.1,30.09,SW,229,1.0,2.0,89,0.00,,,0.00,0,Wunderground v.1.15,2013-02-15 07:55:00,
2013-02-15 03:05:00,33.4,30.5,30.09,SW,229,1.0,2.0,89,0.00,,,0.00,0,Wunderground v.1.15,2013-02-15 08:05:00,
2013-02-15 03:10:00,33.7,30.5,30.08,SW,229,2.0,3.0,88,0.00,,,0.00,0,Wunderground v.1.15,2013-02-15 08:10:00,
2013-02-15 03:15:00,33.8,30.6,30.08,SW,229,2.0,3.0,88,0.00,,,0.00,0,Wunderground v.1.15,2013-02-15 08:15:00,
2013-02-15 03:20:00,34.0,30.8,30.08,SW,229,2.0,2.0,88,0.00,,,0.00,0,Wunderground v.1.15,2013-02-15 08:20:00,
2013-02-15 03:30:00,34.3,30.8,30.08,SW,229,1.0,1.0,87,0.00,,,0.00,0,Wunderground v.1.15,2013-02-15 08:30:00,
2013-02-15 03:35:00,34.2,30.4,30.08,SW,229,0.0,1.0,86,0.00,,,0.00,0,Wunderground v.1.15,2013-02-15 08:35:00,
2013-02-15 03:45:00,33.9,30.2,30.08,SW,229,0.0,0.0,86,0.00,,,0.00,0,Wunderground v.1.15,2013-02-15 08:45:00,
2013-02-15 03:50:00,33.7,30.0,30.08,SW,229,0.0,0.0,86,0.00,,,0.00,0,Wunderground v.1.15,2013-02-15 08:50:00,
2013-02-15 04:00:00,32.9,29.2,30.07,SW,229,0.0,0.0,86,0.00,,,0.00,0,Wunderground v.1.15,2013-02-15 09:00:00,
2013-02-15 04:05:00,32.3,28.6,30.08,SW,229,0.0,0.0,86,0.00,,,0.00,0,Wunderground v.1.15,2013-02-15 09:05:00,
2013-02-15 04:15:00,31.4,28.0,30.08,SW,229,0.0,0.0,87,0.00,,,0.00,0,Wunderground v.1.15,2013-02-15 09:15:00,
2013-02-15 04:20:00,31.0,27.9,30.08,SW,229,0.0,1.0,88,0.00,,,0.00,0,Wunderground v.1.15,2013-02-15 09:20:00,
2013-02-15 04:30:00,30.5,27.6,30.08,SW,229,0.0,0.0,89,0.00,,,0.00,0,Wunderground v.1.15,2013-02-15 09:30:00,
2013-02-15 04:35:00,30.1,27.3,30.08,SW,229,0.0,1.0,89,0.00,,,0.00,0,Wunderground v.1.15,2013-02-15 09:35:00,
2013-02-15 04:40:00,29.8,27.0,30.09,SW,229,0.0,1.0,89,0.00,,,0.00,0,Wunderground v.1.15,2013-02-15 09:40:00,
2013-02-15 04:50:00,29.4,26.8,30.09,SW,229,0.0,0.0,90,0.00,,,0.00,0,Wunderground v.1.15,2013-02-15 09:50:00,
2013-02-15 04:55:00,29.3,26.7,30.09,SW,229,0.0,0.0,90,0.00,,,0.00,0,Wunderground v.1.15,2013-02-15 09:55:00,
2013-02-15 05:05:00,29.0,26.7,30.09,SW,229,0.0,0.0,91,0.00,,,0.00,0,Wunderground v.1.15,2013-02-15 10:05:00,
2013-02-15 05:10:00,28.9,26.9,30.10,SW,229,0.0,0.0,92,0.00,,,0.00,0,Wunderground v.1.15,2013-02-15 10:10:00,
2013-02-15 05:15:00,29.0,27.0,30.10,SW,229,0.0,0.0,92,0.00,,,0.00,0,Wunderground v.1.15,2013-02-15 10:15:00,
2013-02-15 05:25:00,29.0,27.0,30.10,SW,229,1.0,1.0,92,0.00,,,0.00,0,Wunderground v.1.15,2013-02-15 10:25:00,
2013-02-15 05:30:00,29.0,27.0,30.10,SW,229,0.0,0.0,92,0.00,,,0.00,0,Wunderground v.1.15,2013-02-15 10:30:00,
2013-02-15 05:35:00,29.0,27.2,30.10,SW,229,0.0,0.0,93,0.00,,,0.00,0,Wunderground v.1.15,2013-02-15 10:35:00,
2013-02-15 06:15:00,28.8,27.0,30.10,SW,229,0.0,0.0,93,0.00,,,0.00,0,Wunderground v.1.15,2013-02-15 11:15:00,
2013-02-15 06:25:00,28.7,26.9,30.10,SW,229,0.0,0.0,93,0.00,,,0.00,0,Wunderground v.1.15,2013-02-15 11:25:00,
2013-02-15 06:35:00,28.7,26.9,30.10,SW,229,0.0,0.0,93,0.00,,,0.00,0,Wunderground v.1.15,2013-02-15 11:35:00,
2013-02-15 06:40:00,28.8,27.0,30.11,SW,229,0.0,0.0,93,0.00,,,0.00,0,Wunderground v.1.15,2013-02-15 11:40:00,
2013-02-15 06:45:00,29.0,27.2,30.11,SW,229,0.0,0.0,93,0.00,,,0.00,0,Wunderground v.1.15,2013-02-15 11:45:00,
2013-02-15 06:55:00,28.9,27.1,30.11,SW,229,0.0,0.0,93,0.00,,,0.00,0,Wunderground v.1.15,2013-02-15 11:55:00,
2013-02-15 07:00:00,28.8,27.0,30.11,SW,229,0.0,0.0,93,0.00,,,0.00,0,Wunderground v.1.15,2013-02-15 12:00:00,
2013-02-15 07:05:00,28.9,27.4,30.11,SW,229,0.0,0.0,94,0.00,,,0.00,0,Wunderground v.1.15,2013-02-15 12:05:00,
2013-02-15 07:15:00,28.8,27.3,30.12,SW,229,0.0,0.0,94,0.00,,,0.00,5,Wunderground v.1.15,2013-02-15 12:15:00,
2013-02-15 07:20:00,28.8,27.3,30.12,SW,229,0.0,0.0,94,0.00,,,0.00,7,Wunderground v.1.15,2013-02-15 12:20:00,
2013-02-15 07:25:00,28.8,27.3,30.12,SW,229,0.0,0.0,94,0.00,,,0.00,11,Wunderground v.1.15,2013-02-15 12:25:00,
2013-02-15 07:35:00,28.8,27.3,30.13,SW,229,0.0,0.0,94,0.00,,,0.00,14,Wunderground v.1.15,2013-02-15 12:35:00,
2013-02-15 07:40:00,28.8,27.3,30.13,SW,229,0.0,0.0,94,0.00,,,0.00,16,Wunderground v.1.15,2013-02-15 12:40:00,
2013-02-15 07:45:00,29.0,27.5,30.13,SW,229,0.0,0.0,94,0.00,,,0.00,18,Wunderground v.1.15,2013-02-15 12:45:00,
2013-02-15 07:50:00,29.2,27.7,30.13,SW,229,0.0,0.0,94,0.00,,,0.00,19,Wunderground v.1.15,2013-02-15 12:50:00,
2013-02-15 08:00:00,29.7,28.4,30.13,SW,229,0.0,0.0,95,0.00,,,0.00,21,Wunderground v.1.15,2013-02-15 13:00:00,
2013-02-15 08:05:00,30.0,28.7,30.13,SW,229,0.0,0.0,95,0.00,,,0.00,23,Wunderground v.1.15,2013-02-15 13:05:00,
2013-02-15 08:15:00,30.8,29.5,30.14,SW,229,0.0,0.0,95,0.00,,,0.00,26,Wunderground v.1.15,2013-02-15 13:15:00,
2013-02-15 08:20:00,31.2,29.9,30.14,SW,229,0.0,0.0,95,0.00,,,0.00,26,Wunderground v.1.15,2013-02-15 13:20:00,
2013-02-15 08:25:00,31.6,30.3,30.14,SW,229,0.0,0.0,95,0.00,,,0.00,28,Wunderground v.1.15,2013-02-15 13:25:00,
2013-02-15 08:30:00,31.8,30.5,30.14,SW,229,0.0,0.0,95,0.00,,,0.00,28,Wunderground v.1.15,2013-02-15 13:30:00,
2013-02-15 08:40:00,32.6,31.3,30.14,SW,229,0.0,1.0,95,0.00,,,0.00,30,Wunderground v.1.15,2013-02-15 13:40:00,
2013-02-15 08:45:00,32.9,31.6,30.14,SW,229,0.0,1.0,95,0.00,,,0.00,30,Wunderground v.1.15,2013-02-15 13:45:00,
2013-02-15 08:50:00,33.3,32.0,30.14,SW,229,0.0,1.0,95,0.00,,,0.00,32,Wunderground v.1.15,2013-02-15 13:50:00,
2013-02-15 09:00:00,34.2,32.9,30.14,SW,229,1.0,1.0,95,0.00,,,0.00,56,Wunderground v.1.15,2013-02-15 14:00:00,
2013-02-15 09:05:00,34.7,33.4,30.14,SW,229,1.0,3.0,95,0.00,,,0.00,37,Wunderground v.1.15,2013-02-15 14:05:00,
2013-02-15 09:10:00,35.4,34.1,30.14,SW,229,1.0,1.0,95,0.00,,,0.00,132,Wunderground v.1.15,2013-02-15 14:10:00,
2013-02-15 09:20:00,36.8,35.2,30.14,SW,229,1.0,1.0,94,0.00,,,0.00,346,Wunderground v.1.15,2013-02-15 14:20:00,
2013-02-15 09:25:00,37.8,35.7,30.14,SW,229,1.0,2.0,92,0.00,,,0.00,362,Wunderground v.1.15,2013-02-15 14:25:00,
2013-02-15 09:30:00,38.8,36.1,30.14,SW,231,2.0,2.0,90,0.00,,,0.00,380,Wunderground v.1.15,2013-02-15 14:30:00,
2013-02-15 09:40:00,40.8,36.6,30.13,SW,233,2.0,2.0,85,0.00,,,0.00,418,Wunderground v.1.15,2013-02-15 14:40:00,
2013-02-15 09:45:00,41.9,37.1,30.13,WSW,244,2.0,2.0,83,0.00,,,0.00,434,Wunderground v.1.15,2013-02-15 14:45:00,
2013-02-15 09:50:00,42.7,37.3,30.13,WSW,244,2.0,3.0,81,0.00,,,0.00,448,Wunderground v.1.15,2013-02-15 14:50:00,
2013-02-15 09:55:00,43.6,37.5,30.13,WSW,244,2.0,4.0,79,0.00,,,0.00,461,Wunderground v.1.15,2013-02-15 14:55:00,
2013-02-15 10:05:00,45.0,37.6,30.13,WSW,243,2.0,3.0,75,0.00,,,0.00,485,Wunderground v.1.15,2013-02-15 15:05:00,
2013-02-15 10:10:00,45.7,37.9,30.13,WSW,245,2.0,2.0,74,0.00,,,0.00,497,Wunderground v.1.15,2013-02-15 15:10:00,
2013-02-15 10:20:00,47.0,37.7,30.12,WSW,250,2.0,2.0,70,0.00,,,0.00,520,Wunderground v.1.15,2013-02-15 15:20:00,
2013-02-15 10:25:00,47.5,37.8,30.12,WSW,239,3.0,4.0,69,0.00,,,0.00,533,Wunderground v.1.15,2013-02-15 15:25:00,
2013-02-15 10:30:00,48.1,38.0,30.12,WSW,247,3.0,3.0,68,0.00,,,0.00,541,Wunderground v.1.15,2013-02-15 15:30:00,
2013-02-15 13:05:00,56.1,37.7,30.04,SW,226,4.0,5.0,50,0.00,,,0.00,831,Wunderground v.1.15,2013-02-15 18:05:00,
2013-02-15 13:10:00,56.0,33.8,30.03,WSW,238,5.0,7.0,43,0.00,,,0.00,213,Wunderground v.1.15,2013-02-15 18:10:00,
2013-02-15 13:20:00,57.2,34.3,30.03,SW,226,6.0,6.0,42,0.00,,,0.00,195,Wunderground v.1.15,2013-02-15 18:20:00,
2013-02-15 13:25:00,56.1,33.3,30.02,SW,216,6.0,7.0,42,0.00,,,0.00,142,Wunderground v.1.15,2013-02-15 18:25:00,
2013-02-15 13:30:00,55.3,34.9,30.02,WSW,252,6.0,7.0,46,0.00,,,0.00,144,Wunderground v.1.15,2013-02-15 18:30:00,
2013-02-15 13:40:00,56.2,35.7,30.02,WSW,253,6.0,9.0,46,0.00,,,0.00,756,Wunderground v.1.15,2013-02-15 18:40:00,
2013-02-15 13:45:00,57.5,34.6,30.01,WSW,241,7.0,7.0,42,0.00,,,0.00,338,Wunderground v.1.15,2013-02-15 18:45:00,
2013-02-15 13:55:00,55.5,35.0,30.01,WSW,239,6.0,8.0,46,0.00,,,0.00,160,Wunderground v.1.15,2013-02-15 18:55:00,
2013-02-15 14:00:00,55.4,34.9,30.00,WSW,248,5.0,5.0,46,0.00,,,0.00,202,Wunderground v.1.15,2013-02-15 19:00:00,
2013-02-15 14:05:00,55.7,34.7,30.00,WSW,250,5.0,5.0,45,0.00,,,0.00,179,Wunderground v.1.15,2013-02-15 19:05:00,
2013-02-15 14:15:00,56.8,35.1,29.99,SSW,212,5.0,5.0,44,0.00,,,0.00,195,Wunderground v.1.15,2013-02-15 19:15:00,
2013-02-15 14:25:00,56.4,34.7,29.99,WSW,242,5.0,5.0,44,0.00,,,0.00,193,Wunderground v.1.15,2013-02-15 19:25:00,
2013-02-15 14:30:00,56.2,34.0,29.99,SW,218,4.0,4.0,43,0.00,,,0.00,174,Wunderground v.1.15,2013-02-15 19:30:00,
2013-02-15 14:35:00,56.1,35.0,29.98,WSW,241,3.0,4.0,45,0.00,,,0.00,186,Wunderground v.1.15,2013-02-15 19:35:00,
2013-02-15 14:40:00,56.3,34.6,29.98,SW,219,4.0,4.0,44,0.00,,,0.00,411,Wunderground v.1.15,2013-02-15 19:40:00,
2013-02-15 14:50:00,58.4,35.4,29.97,SW,216,4.0,6.0,42,0.00,,,0.00,169,Wunderground v.1.15,2013-02-15 19:50:00,
2013-02-15 14:55:00,59.3,34.3,29.97,WSW,237,5.0,6.0,39,0.00,,,0.00,153,Wunderground v.1.15,2013-02-15 19:55:00,
2013-02-15 15:05:00,58.8,33.9,29.97,WSW,237,6.0,6.0,39,0.00,,,0.00,98,Wunderground v.1.15,2013-02-15 20:05:00,
2013-02-15 15:10:00,59.1,34.8,29.96,SSW,212,7.0,7.0,40,0.00,,,0.00,123,Wunderground v.1.15,2013-02-15 20:10:00,
2013-02-15 15:20:00,58.4,33.5,29.96,SW,227,5.0,11.0,39,0.00,,,0.00,97,Wunderground v.1.15,2013-02-15 20:20:00,
2013-02-15 15:30:00,58.2,32.7,29.95,SW,225,5.0,5.0,38,0.00,,,0.00,127,Wunderground v.1.15,2013-02-15 20:30:00,
2013-02-15 15:35:00,57.1,32.4,29.96,SW,216,4.0,9.0,39,0.00,,,0.00,105,Wunderground v.1.15,2013-02-15 20:35:00,
2013-02-15 15:40:00,56.7,32.6,29.95,SW,222,5.0,5.0,40,0.00,,,0.00,91,Wunderground v.1.15,2013-02-15 20:40:00,
2013-02-15 15:50:00,58.2,32.7,29.95,SW,220,4.0,4.0,38,0.00,,,0.00,123,Wunderground v.1.15,2013-02-15 20:50:00,
2013-02-15 15:55:00,58.1,33.2,29.95,WSW,243,4.0,8.0,39,0.00,,,0.00,86,Wunderground v.1.15,2013-02-15 20:55:00,
2013-02-15 16:05:00,58.4,32.9,29.95,SW,225,7.0,7.0,38,0.00,,,0.00,49,Wunderground v.1.15,2013-02-15 21:05:00,
2013-02-15 16:15:00,58.5,32.3,29.94,WSW,243,5.0,6.0,37,0.00,,,0.00,47,Wunderground v.1.15,2013-02-15 21:15:00,
2013-02-15 16:20:00,58.6,32.4,29.95,SW,222,5.0,5.0,37,0.00,,,0.00,46,Wunderground v.1.15,2013-02-15 21:20:00,
2013-02-15 16:25:00,58.2,32.0,29.95,SW,226,6.0,8.0,37,0.00,,,0.00,53,Wunderground v.1.15,2013-02-15 21:25:00,
2013-02-15 16:35:00,57.7,32.2,29.94,SW,233,6.0,7.0,38,0.00,,,0.00,102,Wunderground v.1.15,2013-02-15 21:35:00,
2013-02-15 16:40:00,57.4,32.6,29.94,SW,229,5.0,5.0,39,0.00,,,0.00,130,Wunderground v.1.15,2013-02-15 21:40:00,
2013-02-15 16:45:00,57.3,31.9,29.94,SW,233,5.0,5.0,38,0.00,,,0.00,58,Wunderground v.1.15,2013-02-15 21:45:00,
2013-02-15 16:55:00,56.4,31.7,29.94,SW,221,5.0,5.0,39,0.00,,,0.00,53,Wunderground v.1.15,2013-02-15 21:55:00,
2013-02-15 17:00:00,56.2,32.2,29.94,SSW,212,4.0,4.0,40,0.00,,,0.00,35,Wunderground v.1.15,2013-02-15 22:00:00,
2013-02-15 17:10:00,55.8,32.4,29.94,WSW,239,4.0,5.0,41,0.00,,,0.00,23,Wunderground v.1.15,2013-02-15 22:10:00,
2013-02-15 17:15:00,55.5,32.2,29.94,SW,232,4.0,6.0,41,0.00,,,0.00,18,Wunderground v.1.15,2013-02-15 22:15:00,
2013-02-15 17:25:00,55.3,32.6,29.94,SW,236,5.0,7.0,42,0.00,,,0.00,16,Wunderground v.1.15,2013-02-15 22:25:00,
2013-02-15 17:30:00,55.2,34.2,29.95,WSW,248,4.0,5.0,45,0.00,,,0.00,11,Wunderground v.1.15,2013-02-15 22:30:00,
2013-02-15 17:35:00,55.1,33.6,29.94,WSW,249,3.0,5.0,44,0.00,,,0.00,7,Wunderground v.1.15,2013-02-15 22:35:00,
2013-02-15 17:45:00,54.9,33.4,29.95,West,268,6.0,7.0,44,0.00,,,0.00,5,Wunderground v.1.15,2013-02-15 22:45:00,
2013-02-15 17:50:00,54.8,33.8,29.95,WSW,247,6.0,6.0,45,0.00,,,0.00,0,Wunderground v.1.15,2013-02-15 22:50:00,
2013-02-15 18:00:00,54.4,33.5,29.95,NW,307,6.0,6.0,45,0.00,,,0.00,0,Wunderground v.1.15,2013-02-15 23:00:00,
2013-02-15 18:05:00,54.3,33.9,29.95,WNW,294,6.0,6.0,46,0.00,,,0.00,0,Wunderground v.1.15,2013-02-15 23:05:00,
2013-02-15 18:15:00,53.8,34.0,29.95,WNW,283,3.0,8.0,47,0.00,,,0.00,0,Wunderground v.1.15,2013-02-15 23:15:00,
2013-02-15 18:20:00,53.6,34.4,29.96,WNW,291,2.0,4.0,48,0.00,,,0.00,0,Wunderground v.1.15,2013-02-15 23:20:00,
2013-02-15 18:30:00,53.3,35.1,29.96,WNW,286,3.0,3.0,50,0.00,,,0.00,0,Wunderground v.1.15,2013-02-15 23:30:00,
2013-02-15 18:35:00,53.2,35.0,29.96,WNW,286,1.0,3.0,50,0.00,,,0.00,0,Wunderground v.1.15,2013-02-15 23:35:00,
2013-02-15 18:45:00,53.0,35.3,29.97,WNW,286,1.0,1.0,51,0.00,,,0.00,0,Wunderground v.1.15,2013-02-15 23:45:00,
2013-02-15 18:50:00,52.8,34.7,29.97,WNW,286,0.0,1.0,50,0.00,,,0.00,0,Wunderground v.1.15,2013-02-15 23:50:00,
2013-02-15 19:00:00,52.2,35.1,29.97,WNW,291,0.0,3.0,52,0.00,,,0.00,0,Wunderground v.1.15,2013-02-16 00:00:00,
2013-02-15 19:05:00,52.1,35.9,29.97,WNW,293,1.0,3.0,54,0.00,,,0.00,0,Wunderground v.1.15,2013-02-16 00:05:00,
2013-02-15 19:15:00,51.9,35.8,29.97,SW,228,1.0,2.0,54,0.00,,,0.00,0,Wunderground v.1.15,2013-02-16 00:15:00,
2013-02-15 19:20:00,51.8,35.7,29.98,SW,228,1.0,1.0,54,0.00,,,0.00,0,Wunderground v.1.15,2013-02-16 00:20:00,
2013-02-15 19:25:00,51.6,37.7,29.98,SW,228,1.0,1.0,59,0.00,,,0.00,0,Wunderground v.1.15,2013-02-16 00:25:00,
2013-02-15 19:30:00,51.3,37.9,29.99,West,270,1.0,5.0,60,0.00,,,0.01,0,Wunderground v.1.15,2013-02-16 00:30:00,
2013-02-15 19:40:00,50.4,38.7,29.99,WNW,289,7.0,8.0,64,0.00,,,0.01,0,Wunderground v.1.15,2013-02-16 00:40:00,
2013-02-15 19:45:00,50.1,38.8,29.99,NW,317,6.0,8.0,65,0.00,,,0.01,0,Wunderground v.1.15,2013-02-16 00:45:00,
2013-02-15 19:55:00,49.4,39.3,29.99,NW,313,5.0,8.0,68,0.00,,,0.01,0,Wunderground v.1.15,2013-02-16 00:55:00,
2013-02-15 20:00:00,49.4,38.9,30.00,NW,313,7.0,10.0,67,0.00,,,0.01,0,Wunderground v.1.15,2013-02-16 01:00:00,
2013-02-15 20:10:00,49.0,38.9,30.01,NW,318,8.0,9.0,68,0.00,,,0.01,0,Wunderground v.1.15,2013-02-16 01:10:00,
2013-02-15 20:15:00,48.5,38.8,30.01,WNW,296,9.0,15.0,69,0.00,,,0.01,0,Wunderground v.1.15,2013-02-16 01:15:00,
2013-02-15 20:20:00,47.7,38.4,30.01,NW,316,10.0,10.0,70,0.00,,,0.01,0,Wunderground v.1.15,2013-02-16 01:20:00,
2013-02-15 20:30:00,46.1,37.2,30.02,NW,305,8.0,14.0,71,0.00,,,0.01,0,Wunderground v.1.15,2013-02-16 01:30:00,
2013-02-15 20:35:00,45.3,36.1,30.02,WNW,300,10.0,14.0,70,0.00,,,0.01,0,Wunderground v.1.15,2013-02-16 01:35:00,
2013-02-15 20:45:00,44.2,35.0,30.03,West,272,11.0,13.0,70,0.00,,,0.01,0,Wunderground v.1.15,2013-02-16 01:45:00,
2013-02-15 20:55:00,43.3,34.9,30.03,NW,313,9.0,13.0,72,0.00,,,0.02,0,Wunderground v.1.15,2013-02-16 01:55:00,
2013-02-15 21:00:00,42.9,34.8,30.03,NNW,327,8.0,8.0,73,0.00,,,0.02,0,Wunderground v.1.15,2013-02-16 02:00:00,
2013-02-15 21:05:00,42.6,35.6,30.03,NNW,328,5.0,8.0,76,0.00,,,0.02,0,Wunderground v.1.15,2013-02-16 02:05:00,
2013-02-15 21:15:00,42.1,35.7,30.03,WNW,300,4.0,4.0,78,0.05,,,0.03,0,Wunderground v.1.15,2013-02-16 02:15:00,
2013-02-15 21:20:00,42.1,35.1,30.03,NNW,336,6.0,6.0,76,0.04,,,0.03,0,Wunderground v.1.15,2013-02-16 02:20:00,
2013-02-15 21:30:00,41.9,34.9,30.03,NW,322,6.0,6.0,76,0.00,,,0.03,0,Wunderground v.1.15,2013-02-16 02:30:00,
2013-02-15 21:35:00,41.8,35.4,30.03,NW,326,3.0,6.0,78,0.00,,,0.03,0,Wunderground v.1.15,2013-02-16 02:35:00,
2013-02-15 21:40:00,41.8,34.8,30.04,NW,320,3.0,3.0,76,0.00,,,0.03,0,Wunderground v.1.15,2013-02-16 02:40:00,
2013-02-15 21:50:00,42.0,34.3,30.03,NNW,341,4.0,4.0,74,0.00,,,0.03,0,Wunderground v.1.15,2013-02-16 02:50:00,
2013-02-15 21:55:00,41.9,34.6,30.03,NW,326,4.0,4.0,75,0.00,,,0.03,0,Wunderground v.1.15,2013-02-16 02:55:00,
2013-02-15 22:05:00,41.6,34.3,30.02,NNE,30,2.0,3.0,75,0.00,,,0.03,0,Wunderground v.1.15,2013-02-16 03:05:00,
2013-02-15 22:10:00,41.4,33.7,30.03,NE,39,3.0,4.0,74,0.00,,,0.03,0,Wunderground v.1.15,2013-02-16 03:10:00,
2013-02-15 22:20:00,41.2,33.9,30.02,NNW,330,2.0,2.0,75,0.00,,,0.03,0,Wunderground v.1.15,2013-02-16 03:20:00,
2013-02-15 22:25:00,41.2,33.9,30.03,NNW,335,2.0,2.0,75,0.00,,,0.03,0,Wunderground v.1.15,2013-02-16 03:25:00,
2013-02-15 22:30:00,41.2,33.5,30.04,NNW,332,1.0,1.0,74,0.00,,,0.03,0,Wunderground v.1.15,2013-02-16 03:30:00,
2013-02-15 22:40:00,41.4,33.4,30.03,NNW,337,3.0,4.0,73,0.00,,,0.03,0,Wunderground v.1.15,2013-02-16 03:40:00,
2013-02-15 22:45:00,41.5,33.1,30.03,NNW,332,3.0,4.0,72,0.00,,,0.03,0,Wunderground v.1.15,2013-02-16 03:45:00,
2013-02-15 22:55:00,41.7,32.6,30.03,East,98,4.0,4.0,70,0.00,,,0.03,0,Wunderground v.1.15,2013-02-16 03:55:00,
2013-02-15 23:00:00,41.6,32.5,30.02,NW,325,4.0,4.0,70,0.00,,,0.03,0,Wunderground v.1.15,2013-02-16 04:00:00,
2013-02-15 23:10:00,41.5,32.1,30.02,NW,325,4.0,4.0,69,0.00,,,0.03,0,Wunderground v.1.15,2013-02-16 04:10:00,
2013-02-15 23:20:00,41.3,32.2,30.02,NW,326,6.0,8.0,70,0.00,,,0.03,0,Wunderground v.1.15,2013-02-16 04:20:00,
2013-02-15 23:25:00,41.1,32.4,30.02,NW,326,7.0,8.0,71,0.00,,,0.03,0,Wunderground v.1.15,2013-02-16 04:25:00,
2013-02-15 23:30:00,41.0,32.0,30.03,NNW,335,6.0,6.0,70,0.00,,,0.03,0,Wunderground v.1.15,2013-02-16 04:30:00,
2013-02-15 23:40:00,40.2,32.6,30.03,NNW,343,7.0,7.0,74,0.00,,,0.03,0,Wunderground v.1.15,2013-02-16 04:40:00,
2013-02-15 23:45:00,39.4,33.4,30.02,NNW,337,5.0,7.0,79,0.00,,,0.04,0,Wunderground v.1.15,2013-02-16 04:45:00,
2013-02-15 23:55:00,38.7,34.0,30.01,NE,49,2.0,4.0,83,0.00,,,0.04,0,Wunderground v.1.15,2013-02-16 04:55:00,